Terminal Aerodrome Forecast
Issued by NWS Duluth, MN

Home | Current Version | Previous Version | Text Only | Print | Product List | Glossary On
Versions: 1 2 3 4 5 6 7 8 9 10 11 12 13 14 15 16 17 18 19 20 21 22 23
000
FTUS43 KDLH 232300
TAFINL
TAF
KINL 232334Z 2400/2424 22006KT P6SM SCT200=

USA.gov is the U.S. government's official web portal to all federal, state and local government web resources and services.